Precipitable_Water
0.73 0.79 0.75 0.64 0.54 0.56 0.62 0.62 0.63 0.63 0.66 0.70 0.80 0.88 0.90 0.88 0.84 0.78 0.75 0.72 0.70 0.67 0.65 0.63 0.62 0.62 0.64 0.68 0.63 0.55 0.69 0.84
0.90 0.88 0.77 0.75 0.63 0.54 0.56 0.63 0.72 0.76 0.80 0.91 0.96 0.97 0.99 0.96 0.96 0.95 0.92 0.86 0.85 0.80 0.81 0.80 0.76 0.75 0.79 0.80 0.77 0.78 0.81 0.85
0.92 0.87 0.74 0.80 0.82 0.86 0.76 0.86 0.84 0.90 0.94 1.00 1.02 1.02 1.00 0.99 0.99 0.96 0.91 0.88 0.89 0.87 0.83 0.82 0.83 0.85 0.86 0.86 0.84 0.86 0.87 0.86
0.87 0.88 0.76 0.85 0.86 0.96 0.98 1.05 1.04 1.02 1.04 1.02 1.03 1.03 1.04 1.04 1.00 0.98 0.89 0.91 0.91 0.87 0.82 0.82 0.82 0.81 0.81 0.83 0.79 0.78 0.76 0.76
0.90 0.86 0.82 0.90 0.90 0.99 1.05 1.04 1.08 1.08 1.13 1.05 0.96 1.02 1.02 0.98 0.96 0.92 0.89 0.91 0.88 0.87 0.86 0.85 0.82 0.81 0.80 0.78 0.77 0.73 0.69 0.69
1.03 0.93 0.73 0.85 0.97 0.95 0.99 1.03 1.10 1.10 1.08 0.99 0.89 0.94 0.92 0.87 0.87 0.82 0.83 0.82 0.82 0.84 0.83 0.78 0.76 0.75 0.76 0.76 0.74 0.68 0.65 0.62
1.04 0.99 0.76 0.79 0.85 0.91 0.88 0.98 1.01 1.04 1.02 0.96 0.86 0.92 0.89 0.88 0.83 0.81 0.80 0.82 0.81 0.77 0.76 0.72 0.72 0.74 0.74 0.73 0.71 0.68 0.65 0.64
1.10 1.11 1.26 1.12 0.97 0.92 0.87 0.93 0.97 0.98 0.95 0.91 0.88 0.91 0.92 0.89 0.86 0.86 0.85 0.87 0.88 0.84 0.80 0.75 0.75 0.78 0.76 0.78 0.76 0.75 0.72 0.69
1.30 1.39 1.38 1.36 1.18 1.02 0.95 0.99 0.97 0.95 0.92 0.91 0.91 0.92 0.92 0.90 0.88 0.87 0.89 0.89 0.85 0.82 0.80 0.82 0.80 0.79 0.79 0.78 0.77 0.77 0.74 0.72
1.28 1.31 1.34 1.46 1.25 1.07 0.99 0.97 0.94 0.91 0.92 0.95 0.96 0.97 0.95 0.92 0.89 0.85 0.87 0.84 0.80 0.77 0.77 0.77 0.79 0.78 0.79 0.80 0.79 0.75 0.74 0.75
1.02 1.22 1.31 1.33 1.13 1.07 1.01 0.99 0.96 0.90 0.96 0.99 1.00 0.99 0.94 0.90 0.88 0.85 0.85 0.84 0.80 0.77 0.77 0.80 0.74 0.71 0.70 0.70 0.67 0.63 0.64 0.72
1.03 1.04 1.09 1.02 0.99 0.97 0.95 0.93 0.94 0.95 0.93 0.93 0.92 0.92 0.89 0.87 0.85 0.83 0.86 0.81 0.75 0.72 0.67 0.66 0.64 0.63 0.62 0.59 0.60 0.61 0.65 0.63
0.94 0.84 0.79 0.82 0.82 0.80 0.79 0.82 0.86 0.86 0.90 0.89 0.88 0.88 0.87 0.87 0.85 0.84 0.79 0.72 0.66 0.63 0.59 0.54 0.52 0.55 0.52 0.50 0.54 0.60 0.60 0.62
0.82 0.81 0.81 0.79 0.79 0.81 0.83 0.82 0.80 0.84 0.86 0.88 0.89 0.87 0.86 0.83 0.80 0.74 0.70 0.63 0.61 0.59 0.55 0.51 0.51 0.57 0.49 0.48 0.40 0.45 0.54 0.58
0.74 0.73 0.76 0.77 0.78 0.80 0.79 0.76 0.76 0.77 0.81 0.83 0.85 0.84 0.80 0.74 0.69 0.65 0.61 0.61 0.56 0.55 0.56 0.53 0.50 0.58 0.63 0.58 0.48 0.44 0.50 0.55
0.75 0.76 0.77 0.80 0.81 0.77 0.74 0.71 0.69 0.72 0.72 0.72 0.70 0.69 0.66 0.65 0.62 0.60 0.58 0.54 0.51 0.53 0.55 0.55 0.56 0.51 0.55 0.57 0.56 0.53 0.40 0.34
0.76 0.79 0.80 0.78 0.76 0.74 0.71 0.67 0.68 0.69 0.70 0.68 0.67 0.66 0.65 0.63 0.59 0.51 0.46 0.49 0.52 0.54 0.54 0.52 0.51 0.47 0.44 0.44 0.40 0.41 0.44 0.39
0.78 0.75 0.75 0.78 0.77 0.76 0.75 0.71 0.69 0.67 0.65 0.63 0.62 0.62 0.59 0.54 0.45 0.49 0.49 0.48 0.48 0.48 0.49 0.47 0.46 0.45 0.42 0.41 0.37 0.34 0.33 0.33
0.76 0.75 0.73 0.76 0.75 0.72 0.71 0.70 0.69 0.67 0.64 0.60 0.57 0.53 0.46 0.39 0.43 0.44 0.46 0.46 0.46 0.45 0.47 0.49 0.47 0.46 0.46 0.43 0.44 0.43 0.42 0.40
0.74 0.74 0.72 0.71 0.70 0.67 0.67 0.67 0.65 0.63 0.60 0.57 0.51 0.42 0.38 0.41 0.42 0.43 0.42 0.43 0.45 0.47 0.47 0.50 0.51 0.46 0.45 0.46 0.46 0.47 0.48 0.46
Wind_Speed
5 3 2 3 3 3 4 4 4 5 6 7 7 9 9 10 11 12 13 13 14 15 15 16 16 16 16 16 16 16 15 15
3 2 2 2 3 4 3 4 5 6 6 7 8 10 10 12 12 13 14 14 15 16 17 17 18 18 18 18 19 18 18 18
2 1 1 2 3 4 4 4 5 7 8 9 10 11 12 13 14 14 15 15 16 16 18 19 18 18 19 20 20 20 20 20
2 2 2 3 5 5 5 5 6 8 10 11 12 13 14 14 15 16 17 18 18 19 19 20 20 20 21 21 20 21 21 21
3 4 4 4 4 6 6 7 9 10 11 13 13 14 15 15 16 17 19 20 20 21 21 21 21 21 21 20 20 20 22 22
4 5 5 5 6 7 8 8 11 10 11 13 14 15 16 17 18 20 21 21 21 21 21 21 21 21 21 21 21 21 21 21
7 8 8 8 7 8 11 12 12 14 14 16 16 17 18 19 21 22 22 23 22 22 23 24 24 24 23 23 23 24 23 24
11 9 9 8 9 11 13 13 16 17 17 18 19 20 21 22 23 24 24 24 25 25 26 27 27 27 28 29 29 28 29 29
11 8 9 13 9 13 16 16 18 19 21 22 22 24 25 25 25 26 26 27 29 30 31 31 31 32 32 32 32 33 33 33
11 16 21 12 16 17 18 18 20 22 24 25 26 26 26 26 27 29 30 32 33 34 34 35 37 37 37 37 37 37 37 37
12 16 13 15 18 18 20 22 24 25 25 26 27 28 28 28 30 33 35 36 37 37 38 39 41 41 42 42 41 41 41 41
13 16 19 21 22 22 23 24 25 26 27 27 29 30 31 33 35 38 39 40 41 42 43 43 43 44 44 44 44 43 42 42
17 19 22 23 23 23 25 26 27 28 28 29 31 32 34 37 38 40 42 43 43 43 44 45 44 44 45 45 44 44 43 43
18 19 21 22 24 25 26 28 29 28 29 31 32 35 37 38 40 42 43 44 44 45 46 47 46 44 46 47 47 46 45 44
19 20 21 24 26 27 29 30 30 31 32 33 35 37 39 41 42 44 45 46 48 49 48 47 47 46 45 45 46 46 49 47
20 22 24 26 27 29 29 30 31 32 33 35 37 39 41 43 45 46 48 50 50 50 49 48 47 47 46 46 46 49 49 51
22 24 25 27 27 28 29 30 32 33 35 37 39 41 43 45 48 50 50 49 48 47 47 47 47 48 48 48 48 47 46 47
23 24 25 27 28 30 31 32 33 34 37 39 42 44 46 48 49 48 47 47 47 47 47 47 47 47 46 45 44 43 43 43
22 23 25 27 29 31 32 34 37 39 42 44 46 47 49 49 47 48 47 47 47 47 46 46 45 44 44 44 42 41 41 41
25 26 28 29 31 33 35 38 40 42 43 45 48 49 48 48 48 48 48 47 46 46 46 44 43 44 43 42 41 40 39 39
Wind_Direction
137 116 82 61 54 42 31 16 3 350 349 345 340 340 337 336 333 328 325 322 319 316 314 313 311 308 306 306 305 301 300 294
153 122 74 48 23 6 358 349 349 344 346 340 332 333 331 328 327 326 325 322 319 315 315 313 309 306 302 301 300 298 295 294
179 201 322 338 357 352 342 339 341 334 334 331 331 329 325 325 324 324 323 321 320 317 316 313 311 306 305 301 297 295 293 291
219 266 284 297 322 325 326 326 331 332 331 329 325 322 318 319 318 318 319 318 316 315 315 313 310 306 304 302 295 293 292 291
247 291 293 300 313 311 304 309 315 322 323 326 327 325 323 321 319 318 317 315 313 312 312 312 310 307 305 302 299 297 292 289
248 282 276 292 313 320 316 308 309 316 319 322 322 322 321 320 318 316 314 314 312 310 309 311 310 308 305 302 299 297 295 292
256 277 280 282 295 306 309 311 308 310 311 314 315 316 315 314 314 313 313 312 311 310 308 308 306 305 303 300 297 294 293 292
256 290 271 278 293 303 309 306 305 305 304 307 309 311 309 310 310 310 310 309 308 307 305 304 303 301 299 296 294 291 288 288
267 276 287 276 294 303 304 301 304 305 303 302 304 307 306 305 306 307 307 307 306 304 302 301 299 298 296 295 292 290 287 284
261 286 307 253 301 304 303 305 305 304 303 301 303 304 304 302 303 304 304 305 304 303 301 299 298 296 294 292 291 289 286 283
287 294 294 292 302 305 306 306 307 304 304 303 304 305 304 302 302 303 303 303 304 302 300 298 297 295 294 291 290 287 285 284
300 303 304 305 306 308 308 306 307 307 304 303 303 302 303 302 302 303 301 300 301 301 300 298 297 295 293 290 288 286 284 283
298 302 304 306 307 307 308 308 307 307 306 306 305 304 304 304 303 303 302 301 301 301 300 299 298 296 293 291 288 286 284 282
297 300 302 304 305 306 306 307 306 305 306 306 306 306 306 306 305 304 304 303 302 301 300 299 297 297 294 291 289 286 283 282
300 301 303 305 305 305 306 305 305 305 305 305 305 306 307 307 306 305 304 303 302 301 300 299 297 295 295 291 289 286 287 281
302 302 302 303 305 306 307 307 306 305 305 305 305 306 306 306 306 305 304 303 301 300 299 298 296 294 293 291 288 286 285 282
305 307 307 307 307 307 307 306 306 306 306 307 307 307 307 306 305 304 303 302 301 300 298 297 296 294 292 290 288 286 283 281
304 306 309 311 312 313 312 310 309 308 308 308 308 307 307 307 307 306 306 304 302 301 299 298 296 294 293 292 289 287 285 283
308 309 310 310 311 312 312 312 312 311 311 311 310 310 309 309 308 307 306 304 303 301 300 298 297 296 294 293 290 287 285 282
311 311 312 312 313 313 311 311 311 310 311 311 311 310 310 309 309 308 307 305 304 303 301 299 298 297 295 293 290 288 287 283